sat.trackr.live / text

‹ back to catalog

STARLINK-35960

NORAD 66531 · 2025-265R

PAYLOAD ACTIVE UNKNOWN

§ Identity

Operator
Country
US
Launch date
2025-11-19
Launch site
AFETR
Launch vehicle
Mass (kg)
RCS (m²)

Purposes: comms

External: N2YO · Heavens-Above · Gunter

§ Orbital elements

Epoch: 2026-09-20T23:24:17.523648Z

Period
94.27 min
Inclination
42.9994°
Eccentricity
0.0001247
Mean motion
15.27585407 rev/d
Perigee alt
482.2 km
Apogee alt
483.9 km
Semi-major
6,861.2 km
B*
3.8387e-4
RAAN
254.7376°
Arg perigee
241.4983°
Mean anomaly
118.5743°
Rev number
4,698

§ Raw data

STARLINK-359601 66531U 25265R   26263.97520282  .00010318  00000+0  38387-3 0  99992 66531  42.9994 254.7376 0001247 241.4983 118.5743 15.27585407 46989

JSON: /api/v1/satellites/66531 · /tle

For live sub-satellite position, see the globe view (requires WebGL).

§ Visibility from observer

Set your observer location to see the next 7 days of passes ≥ 10°. The values pass through the URL so the page stays shareable.

No JS? Fill the form by hand. The geolocation button needs JavaScript.